This demonstration page uses our WeatherBlox Daily Observations layout. Learn more.

Left ArrowRight Arrow

39.92423, -83.80882

Hourly Observations for July 21, 2021

Temp ( °F °C ) Dew Point ( °F °C ) Humidity (%) Winds ( mph kmh ) Pressure ( in mb ) Visibility ( mi km ) Precip ( " mm )
12:56 am 00:56 Clear 66 19 N/A N/A WSW 6 9 30.00 1016 10 16 N/A
1:56 am 01:56 Mostly Clear 64 18 N/A N/A W 7 11 30.00 1016 10 16 N/A
2:56 am 02:56 Clear 64 18 N/A N/A WNW 5 7 29.99 1016 10 16 N/A
3:56 am 03:56 Clear 64 18 N/A N/A NW 5 7 29.98 1015 9 14 N/A
4:56 am 04:56 Mostly Clear 63 17 N/A N/A WNW 3 6 29.99 1016 7 11 N/A
5:56 am 05:56 Hazy 63 17 N/A N/A W 3 6 30.00 1016 5 8 N/A
6:17 am 06:17 Mostly Cloudy with Haze 63 17 N/A N/A NW 3 6 30.01 1016 4 6 N/A
6:34 am 06:34 Cloudy with Mist and Fog 64 18 N/A N/A NW 5 7 30.02 1017 3 5 N/A
6:56 am 06:56 Cloudy with Mist and Fog 66 19 N/A N/A NW 5 7 30.03 1017 3 5 N/A
7:56 am 07:56 Cloudy with Haze 66 19 N/A N/A NNW 5 7 30.04 1017 4 6 N/A
8:46 am 08:46 Cloudy with Haze 68 20 N/A N/A NNW 6 9 30.05 1018 4 6 N/A
8:56 am 08:56 Cloudy with Haze 68 20 N/A N/A NNW 7 11 30.07 1018 4 6 N/A
9:08 am 09:08 Cloudy with Haze 70 21 N/A N/A N 6 9 30.06 1018 5 8 N/A
9:56 am 09:56 Cloudy with Haze 68 20 N/A N/A NNE 6 9 30.09 1019 4 6 0.00 0.00
10:11 am 10:11 Cloudy with Mist and Fog 70 21 70 21 100 100 N 6 9 30.07 1018 5 8 N/A
10:24 am 10:24 Cloudy with Mist and Fog 70 21 70 21 100 100 N 6 9 30.08 1019 5 8 N/A
10:35 am 10:35 Cloudy with Mist and Fog 70 21 70 21 100 100 N 9 15 30.08 1019 6 10 N/A
10:47 am 10:47 Cloudy with Mist and Fog 72 22 68 20 88 88 NNE 10 17 30.07 1018 6 10 N/A
10:56 am 10:56 Cloudy 72 22.2 67 19.4 84 84 NE 9 15 30.10 1019 7 11 N/A
11:56 am 11:56 Partly Cloudy 74 23.3 66 18.9 76 76 NE 8 13 30.11 1020 9 14 N/A
12:20 pm 12:20 Mostly Cloudy 73 23 66 19 78 78 VRB 5 7 30.08 1019 9 14 N/A
12:42 pm 12:42 Partly Cloudy 75 24 66 19 74 74 N 12 19 30.08 1019 8 13 N/A
12:56 pm 12:56 Mostly Cloudy 75 23.9 65 18.3 71 71 N 13 20 30.11 1020 8 13 N/A
1:56 pm 13:56 Mostly Cloudy 76 24.4 65 18.3 69 69 N 8 13 30.11 1020 9 14 N/A
2:56 pm 14:56 Mostly Sunny 78 25.6 64 17.8 62 62 NNW 9 15 30.10 1019 10 16 N/A
3:56 pm 15:56 Partly Cloudy 77 25 62 16.7 60 60 N 9 15 30.10 1019 10 16 N/A
4:56 pm 16:56 Partly Cloudy 77 25 62 16.7 60 60 NNW 7 11 30.09 1019 10 16 N/A
5:56 pm 17:56 Mostly Cloudy 75 23.9 61 16.1 62 62 N 9 15 30.11 1020 10 16 N/A
6:56 pm 18:56 Sunny 75 23.9 61 16.1 62 62 N 9 15 30.10 1019 10 16 N/A
7:56 pm 19:56 Sunny 72 22.2 63 17.2 73 73 NE 7 11 30.11 1020 10 16 N/A
8:56 pm 20:56 Sunny 66 18.9 64 17.8 93 93 ENE 7 11 30.13 1020 10 16 N/A
9:56 pm 21:56 Clear 64 17.8 63 17.2 96 96 NE 6 9 30.16 1021 7 11 N/A
10:56 pm 22:56 Clear 62 16.7 62 16.7 100 100 ENE 6 9 30.16 1022 10 16 N/A
11:56 pm 23:56 Clear 61 16.1 61 16.1 100 100 NE 5 7 30.18 1022 10 16 N/A

Powered by AerisWeather